Tracking 19817 objects as of 19-Aug-2019
HD Live streaming from Space Station
objects crossing your sky now

FENGYUN 1C DEB

Track FENGYUN 1C DEB now!
10-day predictions


NORAD ID: 32218
Int'l Code: 1999-025CVQ
Perigee: 711.5 km
Apogee: 833.5 km
Inclination: 98.6 °
Period: 100.1 minutes
Semi major axis: 7143 km
RCS: 0.0091 m2 (small)
Launch date: May 10, 1999
Source: People's Republic of China (PRC)
Launch site: Taiyaun Space Center, China (TSC)

Note: This is SATELLITE DEBRIS
aabbcc
Your satellite tracking list
Your tracking list is empty




NASA's NSSDC Master Catalog

Two Line Element Set (TLE):
1 32218U 99025CVQ 19230.09335826 +.00000448 +00000-0 +15680-3 0  9991
2 32218 098.6433 335.5450 0085404 125.5480 357.8767 14.37928133630139
Source of the keplerian elements: AFSPC